DW9346 Weather Reports


time (UTC)temp
C
wind
direction
speed
KPH
gust
KPH
rain 1hr
cm
rain 24hr
cm
rain mn
cm
humidity
%
barometer
mb
20190825135704 14 259 0.0 0.0 0.00 0.00 0.00 93 1019.1
20190825135204 14 259 0.0 3.2 0.00 0.00 0.00 92 1019.1
20190825134704 14 259 0.0 3.2 0.00 0.00 0.00 93 1019.0
20190825134205 14 259 0.0 4.8 0.00 0.00 0.00 93 1018.8
20190825133704 14 259 0.0 4.8 0.00 0.00 0.00 93 1018.8
20190825133205 14 259 0.0 4.8 0.00 0.00 0.00 93 1018.6
20190825132704 14 259 0.0 3.2 0.00 0.00 0.00 93 1018.6
20190825132204 14 259 0.0 3.2 0.00 0.00 0.00 93 1018.6
20190825131703 14 259 0.0 3.2 0.00 0.00 0.00 93 1018.6
20190825131204 14 259 0.0 0.0 0.00 0.00 0.00 93 1018.5
20190825130704 14 259 0.0 0.0 0.00 0.00 0.00 93 1018.4
20190825130204 14 259 0.0 4.8 0.00 0.00 0.00 93 1018.4
20190825125703 14 259 0.0 4.8 0.00 0.00 0.00 93 1018.3
20190825125204 14 259 0.0 4.8 0.00 0.00 0.00 93 1018.3
20190825124705 14 259 0.0 4.8 0.00 0.00 0.00 93 1018.1
20190825124204 14 259 0.0 4.8 0.00 0.00 0.00 93 1018.1
20190825123704 14 259 0.0 4.8 0.00 0.00 0.00 93 1018.1
20190825123204 14 257 0.0 0.0 0.00 0.00 0.00 93 1017.9
20190825122704 14 257 0.0 0.0 0.00 0.00 0.00 93 1017.9
20190825122204 14 257 0.0 0.0 0.00 0.00 0.00 93 1017.8
20190825121704 14 257 0.0 0.0 0.00 0.00 0.00 93 1017.7
20190825121205 14 257 0.0 0.0 0.00 0.00 0.00 93 1017.8
20190825120704 14 257 0.0 0.0 0.00 0.00 0.00 93 1017.7
20190825120204 14 257 0.0 0.0 0.00 0.00 0.00 93 1017.7
20190825115704 14 257 0.0 0.0 0.00 0.00 0.00 93 1017.7
20190825115204 14 257 0.0 0.0 0.00 0.00 0.00 93 1017.7
20190825114704 14 257 0.0 0.0 0.00 0.00 0.00 93 1017.6
20190825114205 14 257 0.0 0.0 0.00 0.00 0.00 93 1017.5
20190825113704 14 257 0.0 0.0 0.00 0.00 0.00 93 1017.6
20190825113204 14 257 0.0 0.0 0.00 0.00 0.00 93 1017.5
20190825112704 14 257 0.0 0.0 0.00 0.00 0.00 93 1017.5
20190825112204 14 257 0.0 0.0 0.00 0.00 0.00 93 1017.5
20190825111704 14 257 0.0 0.0 0.00 0.00 0.00 94 1017.4
20190825111204 14 257 0.0 0.0 0.00 0.00 0.00 94 1017.2
20190825110704 14 257 0.0 0.0 0.00 0.00 0.00 94 1017.2
20190825110204 14 257 0.0 0.0 0.00 0.00 0.00 94 1017.1
20190825105704 14 257 0.0 0.0 0.00 0.00 0.00 94 1017.1
20190825105205 14 257 0.0 0.0 0.00 0.00 0.00 94 1017.1
20190825104704 14 257 0.0 0.0 0.00 0.00 0.00 94 1017.0
20190825104205 14 257 0.0 0.0 0.00 0.00 0.00 94 1017.1
20190825103704 14 257 0.0 0.0 0.00 0.00 0.00 94 1017.1
20190825103204 14 257 0.0 0.0 0.00 0.00 0.00 94 1017.0
20190825102704 14 257 0.0 0.0 0.00 0.00 0.00 94 1017.1
20190825102204 14 257 0.0 0.0 0.00 0.00 0.00 94 1017.2
20190825101703 14 257 0.0 0.0 0.00 0.00 0.00 94 1017.1
20190825101204 14 257 0.0 0.0 0.00 0.00 0.00 94 1017.1
20190825100704 14 257 0.0 0.0 0.00 0.00 0.00 94 1016.9
20190825100204 14 257 0.0 0.0 0.00 0.00 0.00 94 1017.0
20190825095704 14 257 0.0 0.0 0.00 0.00 0.00 94 1016.9
20190825095203 14 257 0.0 0.0 0.00 0.00 0.00 94 1016.9
20190825094704 14 257 0.0 0.0 0.00 0.00 0.00 94 1016.9
20190825094204 14 257 0.0 0.0 0.00 0.00 0.00 94 1016.9
20190825093704 14 257 0.0 0.0 0.00 0.00 0.00 94 1017.0
20190825093204 14 257 0.0 0.0 0.00 0.00 0.00 94 1017.0
20190825092703 14 257 0.0 0.0 0.00 0.00 0.00 94 1017.0
20190825092204 14 257 0.0 0.0 0.00 0.00 0.00 94 1016.8
20190825091704 14 257 0.0 0.0 0.00 0.00 0.00 94 1016.8
20190825091204 14 257 0.0 0.0 0.00 0.00 0.00 94 1016.8
20190825090703 14 257 0.0 0.0 0.00 0.00 0.00 94 1016.8
20190825090204 14 257 0.0 0.0 0.00 0.00 0.00 94 1016.8
20190825085704 14 257 0.0 0.0 0.00 0.00 0.00 94 1016.9
20190825085205 14 257 0.0 0.0 0.00 0.00 0.00 94 1016.8
20190825084704 14 257 0.0 0.0 0.00 0.00 0.00 94 1016.8
20190825084204 14 257 0.0 0.0 0.00 0.00 0.00 94 1016.6
20190825083703 14 257 0.0 0.0 0.00 0.00 0.00 94 1016.7
20190825083204 14 222 0.0 0.0 0.00 0.00 0.00 94 1016.6
20190825082704 14 221 0.0 0.0 0.00 0.00 0.00 94 1016.5
20190825082204 14 221 0.0 0.0 0.00 0.00 0.00 94 1016.4
20190825081704 14 221 0.0 0.0 0.00 0.00 0.00 94 1016.5
20190825081206 14 221 0.0 0.0 0.00 0.00 0.00 93 1016.5
20190825080704 14 221 0.0 0.0 0.00 0.00 0.00 93 1016.5
20190825080208 14 221 0.0 0.0 0.00 0.00 0.00 93 1016.4
20190825075704 14 221 0.0 0.0 0.00 0.00 0.00 93 1016.4
20190825075205 14 221 0.0 0.0 0.00 0.00 0.00 93 1016.3
20190825074704 14 221 0.0 0.0 0.00 0.00 0.00 92 1016.2
20190825074205 14 221 0.0 0.0 0.00 0.00 0.00 92 1016.2
20190825073704 15 221 0.0 0.0 0.00 0.00 0.00 92 1016.2
20190825073204 15 221 0.0 0.0 0.00 0.00 0.00 92 1016.2
20190825072704 15 221 0.0 0.0 0.00 0.00 0.00 92 1016.1
20190825072205 15 221 0.0 0.0 0.00 0.00 0.00 92 1016.1
20190825071705 15 221 0.0 0.0 0.00 0.00 0.00 92 1016.1
20190825071204 15 221 0.0 0.0 0.00 0.00 0.00 91 1016.1
20190825070704 15 221 0.0 0.0 0.00 0.00 0.00 91 1016.0
20190825070205 15 221 0.0 0.0 0.00 0.00 0.00 91 1016.0
20190825065704 15 221 0.0 0.0 0.00 0.00 0.00 90 1015.9
20190825065205 15 221 0.0 0.0 0.00 0.00 0.00 90 1015.8
20190825064704 15 221 0.0 0.0 0.00 0.00 0.00 90 1015.8
20190825064204 15 221 0.0 0.0 0.00 0.00 0.00 89 1015.8
20190825063703 15 221 0.0 0.0 0.00 0.00 0.00 89 1015.9
20190825063204 15 221 0.0 0.0 0.00 0.00 0.00 89 1015.8
20190825062703 15 221 0.0 0.0 0.00 0.00 0.00 89 1015.9
20190825062204 16 221 0.0 0.0 0.00 0.00 0.00 88 1015.9
20190825061704 16 221 0.0 0.0 0.00 0.00 0.00 88 1015.9
20190825061204 16 221 0.0 0.0 0.00 0.00 0.00 88 1015.8
20190825060703 16 221 0.0 0.0 0.00 0.00 0.00 88 1015.7
20190825060205 16 221 0.0 0.0 0.00 0.00 0.00 88 1015.8
20190825055703 16 221 0.0 0.0 0.00 0.00 0.00 88 1015.8
20190825055204 16 221 0.0 3.2 0.00 0.00 0.00 88 1015.8
20190825054704 16 221 0.0 3.2 0.00 0.00 0.00 88 1015.7
20190825054204 16 221 0.0 3.2 0.00 0.00 0.00 87 1015.7
20190825053704 16 221 0.0 3.2 0.00 0.00 0.00 87 1015.5
20190825053204 16 184 0.0 3.2 0.00 0.00 0.00 87 1015.4
20190825052704 16 178 0.0 3.2 0.00 0.00 0.00 87 1015.4
20190825052204 16 188 0.0 3.2 0.00 0.00 0.00 86 1015.5
20190825051703 16 228 0.0 3.2 0.00 0.00 0.00 85 1015.6
20190825051204 16 288 0.0 0.0 0.00 0.00 0.00 84 1015.5
20190825050703 16 288 0.0 3.2 0.00 0.00 0.00 84 1015.6
20190825050203 16 288 0.0 3.2 0.00 0.00 0.00 84 1015.6
20190825045704 16 288 0.0 3.2 0.00 0.00 0.00 83 1015.6
20190825045204 16 288 0.0 3.2 0.00 0.00 0.00 82 1015.5
20190825044704 17 225 0.0 3.2 0.00 0.00 0.00 82 1015.4
20190825044204 17 214 0.0 3.2 0.00 0.00 0.00 82 1015.4
20190825043704 17 214 0.0 3.2 0.00 0.00 0.00 81 1015.4
20190825043204 17 214 0.0 3.2 0.00 0.00 0.00 82 1015.4
20190825042704 17 214 0.0 3.2 0.00 0.00 0.00 81 1015.4
20190825042204 17 214 0.0 3.2 0.00 0.00 0.00 80 1015.3
20190825041704 17 214 0.0 3.2 0.00 0.00 0.00 79 1015.3
20190825041204 17 214 0.0 3.2 0.00 0.00 0.00 79 1015.3
20190825040704 18 261 0.0 3.2 0.00 0.00 0.00 79 1015.3
20190825040204 18 261 0.0 3.2 0.00 0.00 0.00 78 1015.3
20190825035704 18 231 0.0 3.2 0.00 0.00 0.00 78 1015.2
20190825035204 18 246 0.0 3.2 0.00 0.00 0.00 77 1015.1
20190825034704 18 182 1.6 3.2 0.00 0.00 0.00 77 1015.1
20190825034204 18 186 1.6 4.8 0.00 0.00 0.00 76 1015.0
20190825033703 18 207 0.0 4.8 0.00 0.00 0.00 76 1014.9
20190825033204 19 218 1.6 4.8 0.00 0.00 0.00 76 1015.0
20190825032704 19 182 1.6 9.7 0.00 0.00 0.00 74 1014.9
20190825032204 19 221 1.6 9.7 0.00 0.00 0.00 74 1014.8
20190825031704 19 167 1.6 9.7 0.00 0.00 0.00 73 1014.8
20190825031204 19 208 1.6 4.8 0.00 0.00 0.00 73 1014.8
20190825030703 20 212 1.6 4.8 0.00 0.00 0.00 73 1014.7
20190825030204 20 232 1.6 6.4 0.00 0.00 0.00 71 1014.8
20190825025704 20 209 1.6 6.4 0.00 0.00 0.00 71 1014.8
20190825025204 20 210 1.6 9.7 0.00 0.00 0.00 70 1014.7
20190825024704 20 190 1.6 9.7 0.00 0.00 0.00 69 1014.7
20190825024204 20 218 1.6 9.7 0.00 0.00 0.00 68 1014.7
20190825023704 21 306 1.6 4.8 0.00 0.00 0.00 67 1014.6
20190825023204 21 159 1.6 4.8 0.00 0.00 0.00 68 1014.6
20190825022703 21 213 1.6 8.0 0.00 0.00 0.00 68 1014.6
20190825022204 21 205 1.6 8.0 0.00 0.00 0.00 65 1014.6
20190825021704 21 103 1.6 3.2 0.00 0.00 0.00 65 1014.6
20190825021203 21 207 1.6 12.9 0.00 0.00 0.00 65 1014.5
20190825020704 21 273 1.6 12.9 0.00 0.00 0.00 64 1014.5
20190825020204 21 210 1.6 12.9 0.00 0.00 0.00 65 1014.4
20190825015703 21 327 0.0 4.8 0.00 0.00 0.00 65 1014.3
20190825015204 21 5 0.0 4.8 0.00 0.00 0.00 65 1014.3
20190825014704 22 202 0.0 4.8 0.00 0.00 0.00 65 1014.2
20190825014203 22 192 1.6 6.4 0.00 0.00 0.00 64 1014.2
20190825013704 22 221 1.6 9.7 0.00 0.00 0.00 64 1014.2
20190825013204 22 202 1.6 9.7 0.00 0.00 0.00 64 1014.2
20190825012703 22 213 1.6 9.7 0.00 0.00 0.00 63 1014.2
20190825012205 22 286 1.6 8.0 0.00 0.00 0.00 63 1014.2
20190825011704 22 267 1.6 8.0 0.00 0.00 0.00 63 1014.3
20190825011203 22 184 1.6 8.0 0.00 0.00 0.00 63 1014.3
20190825010704 22 227 3.2 8.0 0.00 0.00 0.00 64 1014.3
20190825010204 22 158 3.2 8.0 0.00 0.00 0.00 65 1014.2
20190825005704 22 164 3.2 8.0 0.00 0.00 0.00 64 1014.2
20190825005204 22 232 3.2 11.3 0.00 0.00 0.00 64 1014.2
20190825004703 22 202 3.2 11.3 0.00 0.00 0.00 65 1014.2
20190825004204 22 197 4.8 12.9 0.00 0.00 0.00 64 1014.3
20190825003704 22 183 4.8 12.9 0.00 0.00 0.00 64 1014.3
20190825003204 22 212 4.8 12.9 0.00 0.00 0.00 65 1014.3
20190825002704 22 201 3.2 12.9 0.00 0.00 0.00 65 1014.4
20190825002204 22 170 3.2 8.0 0.00 0.00 0.00 64 1014.3
20190825001703 22 158 3.2 8.0 0.00 0.00 0.00 64 1014.3
20190825001205 22 188 3.2 8.0 0.00 0.00 0.00 66 1014.3
20190825000704 22 208 1.6 9.7 0.00 0.00 0.00 65 1014.2
20190825000204 22 277 3.2 9.7 0.00 0.00 0.00 65 1014.3
20190824235703 22 188 3.2 9.7 0.00 0.00 0.00 65 1014.3
20190824235204 22 187 3.2 9.7 0.00 0.00 0.00 64 1014.2
20190824234704 22 191 3.2 9.7 0.00 0.00 0.00 63 1014.2
20190824234204 22 156 3.2 14.5 0.00 0.00 0.00 66 1014.3
20190824233703 22 91 3.2 14.5 0.00 0.00 0.00 66 1014.2
20190824233204 22 340 3.2 14.5 0.00 0.00 0.00 66 1014.2
20190824232704 22 215 3.2 8.0 0.00 0.00 0.00 67 1014.2
20190824232204 22 150 3.2 14.5 0.00 0.00 0.00 67 1014.3
20190824231704 22 288 3.2 14.5 0.00 0.00 0.00 68 1014.2
20190824231205 22 55 4.8 12.9 0.00 0.00 0.00 68 1014.1
20190824230704 22 250 4.8 12.9 0.00 0.00 0.00 69 1014.2
20190824230204 22 133 4.8 12.9 0.00 0.00 0.00 68 1014.2
20190824225704 22 133 4.8 11.3 0.00 0.00 0.00 67 1014.2
20190824225204 22 220 4.8 11.3 0.00 0.00 0.00 69 1014.3
20190824224704 22 130 4.8 14.5 0.00 0.00 0.00 68 1014.2
20190824224204 22 195 4.8 14.5 0.00 0.00 0.00 69 1014.3
20190824223704 22 292 3.2 9.7 0.00 0.00 0.00 69 1014.4
20190824223204 22 144 3.2 9.7 0.00 0.00 0.00 68 1014.4
20190824222704 22 180 4.8 9.7 0.00 0.00 0.00 68 1014.5
20190824222205 22 213 4.8 9.7 0.00 0.00 0.00 69 1014.5
20190824221704 22 173 3.2 9.7 0.00 0.00 0.00 71 1014.5
20190824221205 21 141 3.2 14.5 0.00 0.00 0.00 71 1014.6
20190824220704 21 209 1.6 14.5 0.00 0.00 0.00 71 1014.6
20190824220204 21 173 1.6 14.5 0.00 0.00 0.00 71 1014.6
20190824215703 21 277 3.2 12.9 0.00 0.00 0.00 71 1014.7
20190824215205 21 328 1.6 12.9 0.00 0.00 0.00 70 1014.7
20190824214704 22 103 1.6 12.9 0.00 0.00 0.00 70 1014.6
20190824214204 22 279 3.2 12.9 0.00 0.00 0.00 69 1014.6
20190824213704 22 184 3.2 12.9 0.00 0.00 0.00 69 1014.6
20190824213203 22 288 3.2 9.7 0.00 0.00 0.00 68 1014.6
20190824212704 22 219 3.2 8.0 0.00 0.00 0.00 67 1014.6
20190824212204 22 181 3.2 6.4 0.00 0.00 0.00 69 1014.5
20190824211704 22 202 3.2 8.0 0.00 0.00 0.00 68 1014.5
20190824211204 22 198 1.6 8.0 0.00 0.00 0.00 69 1014.4
20190824210703 22 144 1.6 12.9 0.00 0.00 0.00 70 1014.5
20190824210204 22 251 1.6 12.9 0.00 0.00 0.00 70 1014.5
20190824205703 22 241 3.2 12.9 0.00 0.00 0.00 70 1014.5
20190824205204 22 240 3.2 11.3 0.00 0.00 0.00 70 1014.5
20190824204704 22 194 3.2 11.3 0.00 0.00 0.00 72 1014.5
20190824204204 21 164 3.2 9.7 0.00 0.00 0.00 72 1014.3
20190824203704 21 191 3.2 9.7 0.00 0.00 0.00 72 1014.4
20190824203204 21 162 3.2 8.0 0.00 0.00 0.00 73 1014.3
20190824202703 21 127 3.2 8.0 0.00 0.00 0.00 73 1014.3
20190824202204 21 176 1.6 8.0 0.00 0.00 0.00 75 1014.3
20190824201704 21 159 1.6 8.0 0.00 0.00 0.00 75 1014.3
20190824201204 21 157 1.6 6.4 0.00 0.00 0.00 74 1014.5
20190824200704 21 186 1.6 9.7 0.00 0.00 0.00 73 1014.4
20190824200204 21 263 1.6 9.7 0.00 0.00 0.00 73 1014.4
20190824195704 21 88 3.2 9.7 0.00 0.00 0.00 72 1014.4
20190824195204 21 243 1.6 9.7 0.00 0.00 0.00 73 1014.5
20190824194704 21 224 1.6 6.4 0.00 0.00 0.00 73 1014.5
20190824194204 20 113 1.6 6.4 0.00 0.00 0.00 75 1014.4
20190824193704 20 140 1.6 6.4 0.00 0.00 0.00 75 1014.4
20190824193204 20 157 1.6 6.4 0.00 0.00 0.00 74 1014.5
20190824192704 20 134 4.8 6.4 0.00 0.00 0.00 77 1014.4
20190824192204 19 134 4.8 6.4 0.00 0.00 0.00 78 1014.4
20190824191704 19 138 3.2 6.4 0.00 0.00 0.00 77 1014.5
20190824191204 19 138 3.2 4.8 0.00 0.00 0.00 78 1014.6
20190824190704 19 138 1.6 4.8 0.00 0.00 0.00 79 1014.6
20190824190204 18 135 3.2 4.8 0.00 0.00 0.00 78 1014.7
20190824185704 18 142 3.2 6.4 0.00 0.00 0.00 79 1014.7
20190824185204 18 144 3.2 6.4 0.00 0.00 0.00 79 1014.7
20190824184703 18 135 3.2 6.4 0.00 0.00 0.00 80 1014.7
20190824184204 18 142 1.6 6.4 0.00 0.00 0.00 81 1014.7
20190824183703 18 143 1.6 6.4 0.00 0.00 0.00 81 1014.8
20190824183204 18 141 1.6 6.4 0.00 0.00 0.00 82 1014.7
20190824182704 18 145 1.6 6.4 0.00 0.00 0.00 81 1014.8
20190824182205 18 146 1.6 6.4 0.00 0.00 0.00 80 1014.8
20190824181705 18 145 1.6 4.8 0.00 0.00 0.00 80 1014.8
20190824181204 18 144 3.2 6.4 0.00 0.00 0.00 80 1014.8
20190824180704 18 144 1.6 6.4 0.00 0.00 0.00 79 1014.7
20190824180204 18 144 1.6 6.4 0.00 0.00 0.00 80 1014.7
20190824175704 18 141 3.2 6.4 0.00 0.00 0.00 79 1014.6
20190824175205 18 140 3.2 6.4 0.00 0.00 0.00 80 1014.6
20190824174704 18 142 3.2 6.4 0.00 0.00 0.00 79 1014.6
20190824174204 17 135 3.2 6.4 0.00 0.00 0.00 79 1014.5
20190824173704 17 142 3.2 6.4 0.00 0.00 0.00 79 1014.5
20190824173204 17 132 3.2 6.4 0.00 0.00 0.00 79 1014.5
20190824172704 18 140 3.2 6.4 0.00 0.00 0.00 78 1014.6
20190824172205 18 136 3.2 6.4 0.00 0.00 0.00 78 1014.5
20190824171704 18 136 3.2 6.4 0.00 0.00 0.00 77 1014.4
20190824171204 18 130 3.2 8.0 0.00 0.00 0.00 77 1014.4
20190824170704 18 129 1.6 8.0 0.00 0.00 0.00 76 1014.3
20190824170204 18 132 3.2 8.0 0.00 0.00 0.00 76 1014.3
20190824165704 18 121 1.6 8.0 0.00 0.00 0.00 75 1014.3
20190824165204 18 123 1.6 8.0 0.00 0.00 0.00 75 1014.3
20190824164704 18 159 3.2 8.0 0.00 0.00 0.00 76 1014.3
20190824164203 18 202 3.2 8.0 0.00 0.00 0.00 76 1014.2
20190824163704 18 146 3.2 8.0 0.00 0.00 0.00 77 1014.1
20190824163204 18 146 3.2 6.4 0.00 0.00 0.00 77 1014.1
20190824162703 18 122 1.6 8.0 0.00 0.00 0.00 77 1014.1
20190824162204 17 149 1.6 8.0 0.00 0.00 0.00 78 1014.0
20190824161704 18 144 1.6 8.0 0.00 0.00 0.00 77 1014.1
20190824161204 18 146 1.6 6.4 0.00 0.00 0.00 76 1014.1
20190824160704 17 157 1.6 6.4 0.00 0.00 0.00 78 1014.0
20190824160204 17 148 1.6 6.4 0.00 0.00 0.00 77 1014.1
20190824155704 17 144 1.6 8.0 0.00 0.00 0.00 78 1014.0
20190824155204 17 150 3.2 8.0 0.00 0.00 0.00 80 1014.0
20190824154703 16 155 3.2 8.0 0.00 0.00 0.00 81 1013.9
20190824154204 16 161 1.6 4.8 0.00 0.00 0.00 83 1013.9
20190824153703 16 155 1.6 4.8 0.00 0.00 0.00 83 1013.8
20190824153204 15 157 0.0 4.8 0.00 0.00 0.00 83 1013.8
20190824152704 15 159 0.0 4.8 0.00 0.00 0.00 83 1013.9
20190824152204 15 232 0.0 0.0 0.00 0.00 0.00 82 1014.0
20190824151704 15 232 0.0 0.0 0.00 0.00 0.00 83 1014.1
20190824151205 15 261 0.0 0.0 0.00 0.00 0.00 83 1014.1
20190824150704 15 261 0.0 0.0 0.00 0.00 0.00 82 1014.3
20190824150204 15 261 0.0 0.0 0.00 0.00 0.00 83 1014.3
20190824145704 15 261 0.0 0.0 0.00 0.00 0.00 87 1014.0
20190824145205 14 261 0.0 0.0 0.00 0.00 0.00 88 1014.2
20190824144704 14 261 0.0 0.0 0.00 0.00 0.00 88 1014.2
20190824144204 14 261 0.0 0.0 0.00 0.00 0.00 89 1014.2
20190824143704 14 261 0.0 0.0 0.00 0.00 0.00 88 1014.1
20190824143204 13 261 0.0 0.0 0.00 0.00 0.00 89 1014.0
20190824142705 13 261 0.0 0.0 0.00 0.00 0.00 89 1013.9
20190824142204 13 261 0.0 0.0 0.00 0.00 0.00 89 1013.9
20190824141705 13 261 0.0 0.0 0.00 0.00 0.00 90 1013.8
20190824141204 13 261 0.0 0.0 0.00 0.00 0.00 90 1013.6
20190824140704 13 261 0.0 0.0 0.00 0.00 0.00 90 1013.5
20190824140204 13 261 0.0 0.0 0.00 0.00 0.00 90 1013.5